User: anonymous   Login
Location: Unspecified
(0.0000°N, 0.0000°E)
Time: 00:55:31
(UTC+00:00)
Language:

SEEDS - Orbit

View from above orbital plane
View from above orbital plane
View from above satellite
View from above satellite

Ground track
Ground track

The orbit data is extracted from the following two-line orbital elements,

1 32791U 08021J   19197.49106776  .00000305  00000-0  36246-4 0  9993
2 32791  97.5276 201.8967 0014361 140.0209 220.2070 14.90835201608251
Epoch (UTC): 16 July 2019 11:47:08
Eccentricity: 0.0014361
inclination: 97.5276°
perigee height: 585 km
apogee height: 605 km
right ascension of ascending node: 201.8967°
argument of perigee: 140.0209°
revolutions per day: 14.90835201
mean anomaly at epoch: 220.2070°
orbit number at epoch: 60825

The dashed part of the orbit path shows where the satellite is in the earth's shadow,  

DLR